Oak Ridge, TN

7:03 PM EDT on September 25, 2016 (GMT -0400)
Oak Ridge

Weather History for KOQT - December, 2011

Change the Weather History Date:

Saturday, December 17, 2011

  Actual Average (KTYS) Record (KTYS)
Temperature  
Mean Temperature 40 °F 40 °F  
Max Temperature 46 °F 49 °F 74 °F (1924)
Min Temperature 34 °F 31 °F 10 °F (1882)
Degree Days  
Heating Degree Days 25 25  
Month to date heating degree days 390  
Since 1 July heating degree days 1071  
Cooling Degree Days 0 0  
Month to date cooling degree days 0  
Year to date cooling degree days 1526  
Moisture  
Dew Point 29 °F    
Average Humidity 69    
Maximum Humidity 89    
Minimum Humidity 49    
Precipitation  
Precipitation 0.00 in 0.14 in 2.16 in (1961)
Month to date precipitation 2.58  
Year to date precipitation 45.94  
Snow  
Snow 0.00 in 0.00 in - ()
Month to date snowfall 0.3  
Since 1 July snowfall 0.3  
Snow Depth -    
Sea Level Pressure  
Sea Level Pressure 30.34 in    
Wind  
Wind Speed 2 mph (East)    
Max Wind Speed 5 mph    
Max Gust Speed -    
Visibility 10 miles    
Events      
T = Trace of Precipitation, MM = Missing Value Source: NWS Daily Summary

Daily Weather History Graph

Daily Weather History Graph

Search for Another Location

Airport or City:

Trip Planner

Search our weather history database for the weather conditions in past years. The results will help you decide how hot, cold, wet, or windy it might be!

Date:

Astronomy

Dec. 17, 2011 Rise Set
Actual Time 7:41 AM EST 5:24 PM EST
Civil Twilight 7:12 AM EST 5:53 PM EST
Nautical Twilight 6:40 AM EST 6:25 PM EST
Astronomical Twilight 6:09 AM EST 6:56 PM EST
Moon No Moon Rise 12:08 PM EST (12/17)
Length of Visible Light 10h 40m
Length of Day
9h 43m
Waning Gibbous, 54% of the Moon is Illuminated
Dec 17
Waning Gibbous
Dec 17
Last Quarter
Dec 24
New
Jan 1
First Quarter
Jan 9
Full

Hourly Weather History & Observations

Time (EST) Temp. Windchill Dew Point Humidity Pressure Visibility Wind Dir Wind Speed Gust Speed Precip Events Conditions
12:53 AM 37.0 °F - 34.0 °F 89% 30.30 in 10.0 mi Calm Calm - N/A   Scattered Clouds
1:53 AM 37.9 °F 35.5 °F 34.0 °F 86% 30.31 in 10.0 mi ENE 3.5 mph - N/A   Overcast
2:53 AM 37.9 °F - 34.0 °F 86% 30.32 in 10.0 mi Calm Calm - N/A   Overcast
3:53 AM 37.9 °F 35.5 °F 34.0 °F 86% 30.31 in 10.0 mi East 3.5 mph - N/A   Overcast
4:53 AM 37.9 °F - 34.0 °F 86% 30.31 in 10.0 mi Calm Calm - N/A   Overcast
5:53 AM 37.9 °F 34.4 °F 33.1 °F 83% 30.32 in 10.0 mi East 4.6 mph - N/A   Overcast
6:53 AM 37.0 °F 34.5 °F 30.0 °F 76% 30.37 in 10.0 mi North 3.5 mph - N/A   Overcast
7:53 AM 36.0 °F - 28.9 °F 76% 30.38 in 10.0 mi Calm Calm - N/A   Overcast
8:53 AM 36.0 °F - 28.0 °F 73% 30.39 in 10.0 mi Calm Calm - N/A   Overcast
9:53 AM 37.0 °F 34.5 °F 28.0 °F 70% 30.39 in 10.0 mi ENE 3.5 mph - N/A   Overcast
10:53 AM 37.9 °F - 28.9 °F 70% 30.38 in 10.0 mi Calm Calm - N/A   Scattered Clouds
11:53 AM 41.0 °F 38.0 °F 30.0 °F 65% 30.37 in 10.0 mi Variable 4.6 mph - N/A   Partly Cloudy
12:53 PM 43.0 °F 41.3 °F 30.0 °F 60% 30.35 in 10.0 mi Variable 3.5 mph - N/A   Partly Cloudy
1:53 PM 44.1 °F - 28.9 °F 55% 30.32 in 10.0 mi Calm Calm - N/A   Clear
2:53 PM 46.0 °F - 28.9 °F 51% 30.30 in 10.0 mi Calm Calm - N/A   Clear
3:53 PM 45.0 °F 43.5 °F 28.0 °F 52% 30.28 in 10.0 mi South 3.5 mph - N/A   Clear
4:53 PM 45.0 °F - 27.0 °F 49% 30.30 in 10.0 mi Calm Calm - N/A   Clear
5:53 PM 41.0 °F - 28.0 °F 60% 30.30 in 10.0 mi Calm Calm - N/A   Clear
6:53 PM 37.9 °F 35.5 °F 25.0 °F 60% 30.32 in 10.0 mi SSW 3.5 mph - N/A   Clear
7:53 PM 37.9 °F - 25.0 °F 60% 30.34 in 10.0 mi Calm Calm - N/A   Clear
8:53 PM 35.1 °F - 26.1 °F 70% 30.36 in 10.0 mi Calm Calm - N/A   Clear
9:53 PM 34.0 °F - 26.1 °F 73% 30.35 in 10.0 mi Calm Calm - N/A   Clear
10:53 PM 36.0 °F 33.3 °F 25.0 °F 64% 30.35 in 10.0 mi Variable 3.5 mph - N/A   Clear
11:53 PM 36.0 °F 33.3 °F 25.0 °F 64% 30.37 in 10.0 mi Variable 3.5 mph - N/A   Clear